Hourly Data Report for October 30, 2013

All times are specified in Local Standard Time (LST). Add 1 hour to adjust for Daylight Saving Time where and when it is observed.

PANGNIRTUNG
NUNAVUT

66°08'36.300" N
65°42'40.500" W
22.60 m
2403049
71826
WXP

Download Data

Hourly Data (October 2013)
Hourly Data Report for October 30, 2013
Temp Definition
°C
Dew Point Temp Definition
°C
Rel Hum Definition
%
Wind Dir Definition
10's deg

Wind Spd Definition
km/h
Visibility Definition
km
Stn Press Definition
kPa
Hmdx Definition


Wind Chill Definition


Weather Definition


TIME
00:00 -6.3 -12.5 61 12 11   99.95   -11 LegendNANA
01:00 -5.2 -12.4 57 16 15   99.98   -11 LegendNANA
02:00 -5.9 -13.0 57 11 11   100.01   -11 LegendNANA
03:00 -6.3 -12.7 60 11 4   100.05   -8 LegendNANA
04:00 -5.3 -12.9 55 11 11   100.03   -10 LegendNANA
05:00 -4.6 -13.3 51 11 19   100.05   -11 LegendNANA
06:00 -4.6 -13.0 52 10 15   100.08   -10 LegendNANA
07:00 -4.7 -13.2 51 11 17   100.14   -11 LegendNANA
08:00 -4.6 -12.9 52 13 11   100.14   -9 LegendNANA
09:00 -4.4 -11.1 59 22 6   100.17   -7 LegendNANA
10:00 -4.1 -10.9 59   0   100.17     LegendNANA
11:00 -3.4 -10.6 57 26 2   100.18   -4 LegendNANA
12:00 -3.1 -10.5 57 23 6   100.17   -6 LegendNANA
13:00 -3.8 -10.9 58 12 4   100.20   -5 LegendNANA
14:00 -4.5 -11.6 58 17 4   100.23   -6 LegendNANA
15:00 -4.7 -11.4 59 16 2   100.28   -6 LegendNANA
16:00 -4.9 -11.1 62 12 6   100.31   -8 LegendNANA
17:00 -4.8 -11.0 62 24 4   100.32   -7 LegendNANA
18:00 -5.3 -11.1 64 21 2   100.33   -6 LegendNANA
19:00 -5.6 -10.6 68 25 4   100.33   -7 LegendNANA
20:00 -5.2 -11.2 63 8 4   100.35   -7 LegendNANA
21:00 -5.2 -11.2 63 10 11   100.34   -10 LegendNANA
22:00 -3.8 -10.6 59 10 9   100.33   -8 LegendNANA
23:00 -4.0 -10.8 59 11 11   100.32   -8 LegendNANA

Notes on Data Quality.

Legend

  • E = Estimated
  • M = Missing
  • NA = Not Available
  • ‡ = Partner data that is not subject to review by the National Climate Archives
Date modified: